Location: Barcelona
(41.3830°N, 2.1830°E)
Time: 22:52:57
(UTC+02:00)

ISS - Pass Details

Date: 20 July 2017
Orbit: 400 x 408 km, 51.6° (Epoch: 24 July)

Event Time Altitude Azimuth Distance (km) Brightness Sun altitude
Exits shadow 02:52:43 12° 324° (NW) 1,321 -0.8 -26.7°
Maximum altitude 02:54:04 15° 351° (N) 1,193 -0.7 -26.6°
Drops below altitude 10° 02:56:03 10° 28° (NNE) 1,456 -0.1 -26.5°
Sets 02:58:48 0° 54° (NE) 2,318 0.8 -26.4°
